Location: Cueva de Ratón
(10.1013°N, 67.6606°W)
Time: 06:18:50
(UTC+00:00)

Cosmos 1140 Rocket - Pass Details

Date: 02 December 2023
Orbit: 743 x 764 km, 74.1° (Epoch: 26 February)

Event Time Altitude Azimuth Distance (km) Brightness Sun altitude
Rises 23:33:42 0° 347° (NNW) 3,181 6.6 -20.7°
Reaches altitude 10° 23:36:03 10° 347° (NNW) 2,255 5.9 -21.3°
Maximum altitude 23:41:10 89° 258° (WSW) 747 3.3 -22.4°
Drops below altitude 10° 23:46:16 10° 168° (SSE) 2,249 6.0 -23.6°
Sets 23:48:37 0° 168° (SSE) 3,171 6.8 -24.2°
